Winfield, KS

11:51 AM CST on December 05, 2019 (GMT -0600)
Strother

Weather History for KWLD - October, 2019

Change the Weather History Date:

Saturday, October 26, 2019

  Actual Average Record
Temperature  
Mean Temperature 50 °F -  
Max Temperature 63 °F 65 °F 88 °F (2014)
Min Temperature 37 °F 46 °F 30 °F (2001)
Degree Days  
Heating Degree Days 16    
Moisture  
Dew Point 41 °F    
Average Humidity 75    
Maximum Humidity 96    
Minimum Humidity 53    
Precipitation  
Precipitation 0.00 in - - ()
Sea Level Pressure  
Sea Level Pressure 29.88 in    
Wind  
Wind Speed 5 mph ()    
Max Wind Speed 10 mph    
Max Gust Speed -    
Visibility 9.9 miles    
Events      
Averages and records for this station are not official NWS values.
T = Trace of Precipitation, MM = Missing Value Source: Averaged Metar Reports

Daily Weather History Graph

Daily Weather History Graph

Search for Another Location

Airport or City:

Astronomy

Oct. 26, 2019 Rise Set
Actual Time 7:46 AM CDT 6:37 PM CDT
Civil Twilight 7:19 AM CDT 7:04 PM CDT
Nautical Twilight 6:49 AM CDT 7:34 PM CDT
Astronomical Twilight 6:18 AM CDT 8:04 PM CDT
Moon 5:47 AM CDT (10/26) 6:10 PM CDT (10/26)
Length of Visible Light 11h 44m
Length of Day
10h 51m
Waning Crescent, 3% of the Moon is Illuminated
Oct 26
Waning Crescent
Oct 27
New
Nov 4
First Quarter
Nov 12
Full
Nov 19
Last Quarter

Hourly Weather History & Observations

Time (CDT) Temp. Windchill Dew Point Humidity Pressure Visibility Wind Dir Wind Speed Gust Speed Precip Events Conditions
12:54 AM 48.0 °F - 39.9 °F 74% 30.09 in 10.0 mi ENE 4.6 mph - N/A   Overcast
1:54 AM 45.0 °F 42.6 °F 41.0 °F 86% 30.06 in 10.0 mi North 4.6 mph - N/A   Mostly Cloudy
2:54 AM 45.0 °F 42.6 °F 42.1 °F 90% 30.04 in 10.0 mi NNW 4.6 mph - N/A   Overcast
3:54 AM 46.0 °F 43.9 °F 41.0 °F 83% 30.00 in 10.0 mi NNW 4.6 mph - N/A   Overcast
4:54 AM 42.1 °F 38.4 °F 39.9 °F 92% 29.99 in 10.0 mi NNW 5.8 mph - N/A   Scattered Clouds
5:54 AM 39.0 °F 34.0 °F 37.9 °F 96% 29.95 in 10.0 mi NNW 6.9 mph - N/A   Partly Cloudy
7:54 AM 37.0 °F 32.4 °F 36.0 °F 96% 29.94 in 10.0 mi NNW 5.8 mph - N/A   Clear
8:54 AM 41.0 °F 37.1 °F 37.9 °F 89% 29.93 in 10.0 mi North 5.8 mph - N/A   Clear
9:54 AM 45.0 °F 42.6 °F 39.0 °F 80% 29.91 in 10.0 mi NW 4.6 mph - N/A   Clear
10:54 AM 51.1 °F - 41.0 °F 68% 29.91 in 10.0 mi Variable 3.5 mph - N/A   Clear
11:54 AM 54.0 °F - 41.0 °F 62% 29.88 in 10.0 mi Variable 3.5 mph - N/A   Clear
12:54 PM 57.0 °F - 43.0 °F 59% 29.84 in 10.0 mi Variable 3.5 mph - N/A   Clear
1:54 PM 59.0 °F - 44.1 °F 58% 29.81 in 9.0 mi SSW 3.5 mph - N/A   Clear
2:54 PM 62.1 °F - 45.0 °F 53% 29.78 in 8.0 mi SSW 6.9 mph - N/A   Clear
4:54 PM 61.0 °F - 44.1 °F 54% 29.76 in 10.0 mi SSW 10.4 mph - N/A   Clear
5:54 PM 59.0 °F - 43.0 °F 55% 29.76 in 10.0 mi SW 8.1 mph - N/A   Clear
6:54 PM 53.1 °F - 41.0 °F 64% 29.77 in 10.0 mi SSW 4.6 mph - N/A   Clear
7:54 PM 48.0 °F - 41.0 °F 77% 29.78 in 10.0 mi SSW 3.5 mph - N/A   Clear
8:54 PM 48.9 °F - 41.0 °F 74% 29.78 in 10.0 mi SSE 3.5 mph - N/A   Clear
9:54 PM 46.0 °F 42.5 °F 39.9 °F 79% 29.78 in 10.0 mi South 6.9 mph - N/A   Clear
10:54 PM 45.0 °F 41.8 °F 39.9 °F 82% 29.78 in 10.0 mi SSE 5.8 mph - N/A   Clear
11:54 PM 46.9 °F - 39.0 °F 74% 29.79 in 10.0 mi SSE 5.8 mph - N/A   Clear